Vertical_Velocity
-0 -1 -1 -2 -4 0 -2 -3 -3 -3 -2 -2 -2 -1 -1 0 1 0 -1 -1 -1 -1
1 -2 -3 0 -5 -3 0 1 0 1 -1 -2 -0 -1 -2 -0 -1 -0 -0 -1 -1 -1
-1 -1 -2 3 -4 -4 -0 -2 0 2 2 -1 1 -0 -0 -1 -3 1 -0 -2 -1 -1
-2 -1 2 1 -2 -2 -0 2 -2 0 -2 -5 -2 -1 -2 1 -0 -3 0 1 1 1
3 -0 -0 -3 -1 0 0 -1 -3 -1 -1 -1 -0 -3 -1 -1 -3 -1 -4 -3 -1 -2
4 -1 -2 -3 1 2 2 -1 -3 -2 -4 -4 -2 -2 -0 -0 -0 3 2 2 -1 -1
-0 1 -4 1 2 2 3 2 -1 -3 -2 -2 1 4 0 -1 -1 0 2 4 1 0
8 8 11 2 -2 2 8 0 0 -3 -2 1 3 0 -6 -2 2 4 1 0 2 -1
7 5 2 7 6 5 2 -2 0 1 1 5 -3 -3 1 -0 1 2 4 2 3 1
4 4 4 3 3 1 9 0 1 2 3 4 7 3 2 4 3 4 7 -3 -1 4
4 2 3 4 3 1 5 -1 3 5 -1 3 -1 5 6 4 8 9 -5 2 -1 2
0 3 3 2 3 5 6 6 3 4 7 5 4 15 -1 0 21 -1 5 4 -5 -3
2 3 2 3 -1 0 1 8 2 -1 12 -13 16 -2 2 -4 -3 -1 10 -8 -1 -7
1 2 1 4 4 5 2 3 5 6 2 5 6 -0 5 9 -8 2 -4 -0 2 -10
Height
1533 1538 1542 1544 1547 1551 1554 1557 1561 1563 1565 1567 1569 1572 1573 1574 1574 1575 1576 1577 1578 1578
1528 1531 1536 1539 1542 1547 1551 1553 1556 1558 1560 1563 1565 1568 1570 1572 1573 1573 1574 1575 1576 1576
1521 1526 1530 1534 1536 1540 1545 1549 1551 1554 1556 1558 1561 1564 1566 1567 1569 1571 1571 1572 1573 1573
1514 1519 1523 1527 1530 1534 1540 1543 1545 1550 1552 1554 1556 1559 1561 1563 1564 1566 1568 1569 1569 1570
1507 1511 1515 1519 1524 1528 1533 1536 1539 1543 1545 1548 1550 1552 1555 1556 1559 1560 1562 1564 1566 1566
1501 1504 1507 1511 1516 1520 1525 1527 1530 1534 1537 1541 1543 1546 1548 1551 1552 1554 1555 1556 1559 1561
1494 1496 1498 1503 1507 1512 1516 1518 1521 1526 1530 1533 1536 1539 1542 1544 1546 1549 1550 1551 1552 1555
1489 1492 1494 1496 1499 1502 1506 1509 1514 1518 1521 1524 1528 1531 1534 1537 1539 1541 1544 1546 1547 1550
1481 1485 1488 1491 1492 1493 1497 1500 1505 1509 1512 1516 1520 1522 1525 1529 1532 1534 1537 1538 1541 1543
1473 1476 1479 1483 1485 1488 1490 1494 1498 1500 1505 1508 1511 1514 1517 1520 1524 1527 1530 1533 1535 1539
1465 1467 1471 1474 1477 1481 1484 1488 1490 1492 1497 1501 1504 1506 1510 1513 1514 1518 1521 1527 1530 1532
1457 1460 1463 1466 1470 1474 1477 1479 1483 1485 1486 1490 1493 1493 1498 1503 1505 1508 1515 1520 1524 1531
1451 1453 1457 1460 1463 1467 1470 1472 1474 1477 1479 1486 1486 1490 1491 1498 1503 1506 1511 1516 1519 1524
1445 1447 1450 1453 1457 1459 1461 1464 1466 1469 1473 1473 1477 1481 1485 1488 1498 1500 1508 1514 1515 1520